Weather History for KTWM - February, 2013

Change the Weather History Date:

Monday, February 18, 2013

  Actual Average (WUND) Record (WUND)
Temperature  
Mean Temperature 17 °F -  
Max Temperature 26 °F - - (-1)
Min Temperature 8 °F - - (-1)
Degree Days  
Heating Degree Days 48    
Moisture  
Dew Point 15 °F    
Average Humidity 73    
Maximum Humidity 80    
Minimum Humidity 63    
Precipitation  
Precipitation 0.00 in - - ()
Sea Level Pressure  
Sea Level Pressure 29.54 in    
Wind  
Wind Speed 5 mph (NNW)    
Max Wind Speed 16 mph    
Max Gust Speed 31 mph    
Visibility 8 miles    
Events Snow    
Averages and records for this station are not official NWS values.
T = Trace of Precipitation, MM = Missing Value Source: NWS Daily Summary

Daily Weather History Graph

Daily Weather History Graph

Search for Another Location

Airport or City:

Trip Planner

Search our weather history database for the weather conditions in past years. The results will help you decide how hot, cold, wet, or windy it might be!

Date:

Astronomy

Feb. 18, 2013 Rise Set
Actual Time 7:06 AM CST 5:36 PM CST
Civil Twilight 6:34 AM CST 6:07 PM CST
Nautical Twilight 5:59 AM CST 6:43 PM CST
Astronomical Twilight 5:24 AM CST 7:18 PM CST
Moon 11:11 AM CST (2/18) 1:56 AM CST (2/18)
Length of Visible Light 11h 32m
Length of Day
10h 30m
First Quarter, 58% of the Moon is Illuminated
Feb 18
First Quarter
Feb 25
Full
Mar 4
Last Quarter
Mar 11
New
Mar 19
First Quarter

Hourly Weather History & Observations

Time (CST) Temp. Windchill Dew Point Humidity Pressure Visibility Wind Dir Wind Speed Gust Speed Precip Events Conditions
12:12 AM 21.2 °F 14.9 °F 12.2 °F 68% 29.65 in 10.0 mi SE 4.6 mph - N/A   Clear
12:31 AM 21.2 °F 12.6 °F 12.2 °F 68% 29.64 in 10.0 mi SSE 6.9 mph - N/A   Clear
12:51 AM 21.2 °F 13.6 °F 12.2 °F 68% 29.63 in 10.0 mi SE 5.8 mph - N/A   Clear
1:11 AM 21.2 °F 13.6 °F 12.2 °F 68% 29.62 in 10.0 mi SE 5.8 mph - N/A   Clear
1:31 AM 23.0 °F 15.8 °F 12.2 °F 63% 29.62 in 10.0 mi SSE 5.8 mph - N/A   Clear
1:51 AM 23.0 °F 17.0 °F 12.2 °F 63% 29.61 in 10.0 mi SE 4.6 mph - N/A   Scattered Clouds
2:31 AM 21.2 °F 16.4 °F 12.2 °F 68% 29.59 in 10.0 mi ESE 3.5 mph - N/A   Clear
2:51 AM 21.2 °F - 12.2 °F 68% 29.59 in 10.0 mi Calm Calm - N/A   Clear
3:11 AM 21.2 °F - 12.2 °F 68% 29.58 in 10.0 mi Calm Calm - N/A   Clear
3:31 AM 19.4 °F 14.3 °F 12.2 °F 74% 29.57 in 10.0 mi East 3.5 mph - N/A   Clear
3:51 AM 19.4 °F 14.3 °F 12.2 °F 74% 29.57 in 10.0 mi East 3.5 mph - N/A   Clear
4:11 AM 19.4 °F 14.3 °F 12.2 °F 74% 29.56 in 10.0 mi ESE 3.5 mph - N/A   Mostly Cloudy
4:31 AM 21.2 °F 16.4 °F 12.2 °F 68% 29.55 in 10.0 mi East 3.5 mph - N/A   Overcast
4:51 AM 21.2 °F 16.4 °F 14.0 °F 74% 29.56 in 10.0 mi ESE 3.5 mph - N/A   Overcast
5:11 AM 23.0 °F 18.4 °F 14.0 °F 68% 29.55 in 10.0 mi ESE 3.5 mph - N/A   Overcast
5:31 AM 23.0 °F 17.0 °F 15.8 °F 74% 29.53 in 10.0 mi East 4.6 mph - N/A   Overcast
5:51 AM 23.0 °F 17.0 °F 15.8 °F 74% 29.53 in 10.0 mi ESE 4.6 mph - N/A   Overcast
6:11 AM 23.0 °F - 15.8 °F 74% 29.53 in 10.0 mi Calm Calm - N/A   Overcast
6:31 AM 23.0 °F - 15.8 °F 74% 29.53 in 10.0 mi Calm Calm - N/A   Overcast
6:51 AM 23.0 °F - 15.8 °F 74% 29.52 in 10.0 mi Calm Calm - N/A   Overcast
7:11 AM 23.0 °F - 15.8 °F 74% 29.52 in 10.0 mi Calm Calm - N/A   Overcast
7:31 AM 23.0 °F - 15.8 °F 74% 29.52 in 10.0 mi Calm Calm - N/A   Overcast
8:31 AM 24.8 °F - 17.6 °F 74% 29.50 in 10.0 mi Calm Calm - N/A   Overcast
8:51 AM 24.8 °F 20.5 °F 17.6 °F 74% 29.49 in 10.0 mi East 3.5 mph - N/A   Overcast
9:11 AM 24.8 °F 19.1 °F 17.6 °F 74% 29.50 in 10.0 mi ESE 4.6 mph - N/A   Overcast
9:31 AM 24.8 °F 17.9 °F 17.6 °F 74% 29.49 in 10.0 mi East 5.8 mph - N/A   Overcast
9:51 AM 26.6 °F 21.2 °F 17.6 °F 69% 29.50 in 10.0 mi East 4.6 mph - N/A   Overcast
10:11 AM 26.6 °F - 17.6 °F 69% 29.50 in 10.0 mi Calm Calm - N/A   Overcast
10:31 AM 26.6 °F - 17.6 °F 69% 29.49 in 10.0 mi Calm Calm - N/A   Overcast
10:51 AM 26.6 °F - 17.6 °F 69% 29.49 in 10.0 mi Calm Calm - N/A   Overcast
11:11 AM 26.6 °F - 17.6 °F 69% 29.48 in 10.0 mi Calm Calm - N/A   Overcast
11:32 AM 26.6 °F - 17.6 °F 69% 29.48 in 10.0 mi Calm Calm - N/A   Overcast
11:51 AM 26.6 °F - 19.4 °F 74% 29.48 in 10.0 mi Calm Calm - N/A   Overcast
12:11 PM 26.6 °F - 19.4 °F 74% 29.47 in 10.0 mi Calm Calm - N/A   Overcast
12:32 PM 26.6 °F 22.6 °F 19.4 °F 74% 29.47 in 10.0 mi SSW 3.5 mph - N/A   Overcast
12:51 PM 26.6 °F - 19.4 °F 74% 29.47 in 10.0 mi Calm Calm - N/A   Overcast
1:11 PM 26.6 °F 21.2 °F 19.4 °F 74% 29.47 in 7.0 mi WSW 4.6 mph - N/A   Overcast
1:32 PM 26.6 °F 19.1 °F 19.4 °F 74% 29.46 in 7.0 mi West 6.9 mph - N/A   Overcast
1:51 PM 26.6 °F - 21.2 °F 80% 29.47 in 10.0 mi Calm Calm - N/A   Overcast
2:11 PM 26.6 °F 20.0 °F 19.4 °F 74% 29.47 in 10.0 mi West 5.8 mph - N/A   Overcast
2:32 PM 26.6 °F 21.2 °F 19.4 °F 74% 29.47 in 10.0 mi NW 4.6 mph - N/A   Overcast
2:51 PM 26.6 °F 20.0 °F 21.2 °F 80% 29.48 in 7.0 mi WNW 5.8 mph - N/A   Overcast
3:11 PM 26.6 °F 21.2 °F 19.4 °F 74% 29.48 in 5.0 mi NW 4.6 mph - N/A   Overcast
3:32 PM 26.6 °F 21.2 °F 21.2 °F 80% 29.49 in 3.0 mi NW 4.6 mph - N/A   Overcast
3:51 PM 26.6 °F 22.6 °F 21.2 °F 80% 29.50 in 2.0 mi NW 3.5 mph - N/A   Overcast
4:11 PM 26.6 °F 22.6 °F 21.2 °F 80% 29.51 in 2.5 mi NW 3.5 mph - N/A   Overcast
4:31 PM 26.6 °F 22.6 °F 21.2 °F 80% 29.51 in 3.0 mi NW 3.5 mph - N/A   Overcast
4:51 PM 26.6 °F - 21.2 °F 80% 29.52 in 4.0 mi Calm Calm - N/A   Overcast
5:11 PM 26.6 °F 22.6 °F 19.4 °F 74% 29.52 in 5.0 mi NW 3.5 mph - N/A   Overcast
5:31 PM 24.8 °F 19.1 °F 19.4 °F 80% 29.53 in 7.0 mi NW 4.6 mph - N/A Snow Light Snow
5:51 PM 24.8 °F 19.1 °F 19.4 °F 80% 29.54 in 5.0 mi NNW 4.6 mph - N/A Snow Light Snow
6:11 PM 24.8 °F 20.5 °F 19.4 °F 80% 29.54 in 5.0 mi NW 3.5 mph - N/A Snow Light Snow
6:31 PM 24.8 °F 16.9 °F 19.4 °F 80% 29.54 in 4.0 mi NW 6.9 mph - N/A Snow Light Snow
6:51 PM 24.8 °F 16.9 °F 19.4 °F 80% 29.54 in 2.5 mi NW 6.9 mph - N/A Snow Light Snow
7:12 PM 21.2 °F 8.9 °F 15.8 °F 80% 29.55 in 2.0 mi NW 12.7 mph 28.8 mph N/A Snow Light Snow
7:31 PM 19.4 °F 8.6 °F 14.0 °F 80% 29.55 in 3.0 mi NW 9.2 mph 23.0 mph N/A Snow Light Snow
7:51 PM 19.4 °F 7.2 °F 12.2 °F 74% 29.55 in 4.0 mi NW 11.5 mph 24.2 mph N/A Snow Light Snow
8:12 PM 17.6 °F 8.2 °F 10.4 °F 73% 29.56 in 4.0 mi NNW 6.9 mph 20.7 mph N/A Snow Light Snow
8:31 PM 17.6 °F 6.4 °F 10.4 °F 73% 29.56 in 5.0 mi NW 9.2 mph 25.3 mph N/A Snow Light Snow
8:51 PM 15.8 °F 2.1 °F 8.6 °F 73% 29.57 in 5.0 mi NW 12.7 mph 24.2 mph N/A Snow Light Snow
9:12 PM 15.8 °F 2.7 °F 6.8 °F 68% 29.58 in 7.0 mi NW 11.5 mph 26.5 mph N/A   Overcast
9:31 PM 15.8 °F 2.1 °F 6.8 °F 68% 29.59 in 7.0 mi NW 12.7 mph 21.9 mph N/A Snow Light Snow
9:51 PM 14.0 °F 1.2 °F 5.0 °F 67% 29.59 in 7.0 mi NW 10.4 mph 24.2 mph N/A Snow Light Snow
10:12 PM 12.2 °F -3.1 °F 5.0 °F 73% 29.59 in 7.0 mi NW 13.8 mph 25.3 mph N/A Snow Light Snow
10:31 PM 10.4 °F -6.0 °F 1.4 °F 67% 29.60 in 7.0 mi NNW 15.0 mph 31.1 mph N/A Snow Light Snow
10:51 PM 10.4 °F -5.4 °F 1.4 °F 67% 29.60 in 7.0 mi NNW 13.8 mph 31.1 mph N/A Snow Light Snow
11:12 PM 8.6 °F -8.9 °F -0.4 °F 67% 29.60 in 10.0 mi NNW 16.1 mph 28.8 mph N/A   Overcast
11:31 PM 8.6 °F -5.5 °F -0.4 °F 67% 29.60 in 10.0 mi NNW 10.4 mph 28.8 mph N/A   Overcast
11:51 PM 8.6 °F -8.9 °F -0.4 °F 67% 29.61 in 10.0 mi NNW 16.1 mph 26.5 mph N/A   Overcast